STARLINK-11393, 62016

Orbit data source: Space-Track

STARLINK-11393, 62016 is a payload satellite owned by SpaceX/Seattle (US) in LEO that was launched on Mon, 18 Nov 2024 UTC via an FALCON 9 launch vehicle from the Air Force Western Test Range (AFWTR). Payload-class satellites include a variety of spacecraft equipped with specific instruments for various scientific and technological missions. These include communications satellites like Starlink; space stations such as the ISS; scientific satellites like the Hubble; Earth observation satellites from companies like Planet Labs, Umbra, and HawkEye 360; GPS; miniature CubeSats for education and research; and military/defense satellites.

Loading next visibility...
Identifier
62016, 2024-213J
Orbit
LEO
Country
Flag of USUS
Related business
Manufacturer
SpaceX/Seattle
Mission
Operational Commercial Communications
Bus & Motor
STARLINK V2MD, Unknown motor
Mass
960 kg wet, ~910 kg dry
Launch date (UTC)
2024-11-18 (1 year ago)
Launch vehicle
FALCON 9
Launch site
Air Force Western Test Range (AFWTR)
Object type
Payload
Rocket body
Debris
Shape & HBR
Box + 2 Pan, 18.1 m
Radar Cross Section
36.964 m², Large (>1 m²)

Expand to show TLE details & history
Last TLE update: 9 hours ago

TLE from 9 hours ago
0 STARLINK-11393
1 62016U 24213J   26126.27606418  .00139703  00000-0  11411-2 0  9991
2 62016  53.1572 117.0974 0002567  16.2555 343.8544 15.69656038 83969
Epoch: 2026-05-06T06:37Z
TLE epoch observation values (Epoch: 2026-05-06T06:37:31.945Z)
Latitude
-0.00006°
Longitude
153.57537°
Altitude
359.135 km
Speed
7.696 km/s
True Right ascension
07h 48m 23s
True Declination
0° 00' 00"
Sunlit
Object was in daylight at epoch
Visualization orbit readout
Latitude
Unknown
Longitude
Unknown
Altitude
Unknown
Speed
Unknown
Apparent Right ascension
Unknown
Apparent Declination
Unknown
Sunlit
N/A
Visualization observer readout
Local Sidereal Time
23:14:07
Azimuth
Unknown
Elevation
Unknown
Doppler factor
Unknown
Orbital elements
Apogee altitude
361.872 km
Perigee altitude
358.413 km
Semi-major axis
6,738.279 km
Eccentricity
0.00026
Inclination
53.1572°
RAAN
117.0974°
Arg. of periapsis
16.2555°
True anomaly
343.84622°
Mean anomaly
343.8544°
Eccentric anomaly
343.85031°
Mean motion
3.92392 °/min
Orbital period
91.75 mins
BSTAR
0.0011411
Loading maneuver chart data...
Computing Atmospheric mass density...
Loading historical data...
Loading historical data...
Loading historical data...
Loading historical data...
Loading historical data...
Loading historical data...
Loading historical data...

Documentation

Showing up to 5 results
|